Regional Weather Roundup
Issued by NWS

Home | Current Version | Previous Version | Graphics & Text | Print | Product List | Glossary On
Versions: 1 2 3 4 5 6 7 8 9 10 11 12 13 14 15 16 17 18 19 20 21 22 23 24 25 26 27
000
ASUS45 KBOU 281007
RWRCO

WEATHER ROUNDUP FOR COLORADO
NATIONAL WEATHER SERVICE DENVER/BOULDER CO
400 AM MDT THU APR 28 2016

NOTE: "FAIR" INDICATES FEW OR NO CLOUDS BELOW 12000 FEET WITH NO
SIGNIFICANT WEATHER AND/OR OBSTRUCTIONS TO VISIBILITY.

COZ001>005-013-030-031-281100-
...NORTHWEST COLORADO...

CITY           SKY/WX    TMP DP  RH WIND       PRES   REMARKS
CRAIG          FAIR      35  31  85 NE6       29.78F WCI  30
HAYDEN         FAIR      34  28  80 SE9       29.78F WCI  26
MEEKER         CLOUDY    36  32  85 N5        29.76F
MOUNT WERNER   NOT AVBL
STEAMBOAT SPGS MOCLDY    32  28  83 CALM      29.80S
WALDEN         CLOUDY    28  25  86 NW3       29.86F
$$

COZ006>008-011-281100-
...WEST CENTRAL VALLEYS...

CITY           SKY/WX    TMP DP  RH WIND       PRES   REMARKS
GRAND JUNCTION MOCLDY    46  39  76 E7        29.68F
MONTROSE       CLOUDY    45  38  76 CALM      29.74F
EAGLE          CLOUDY    34  30  86 E3        29.83S
RIFLE          CLOUDY    41  35  79 CALM      29.75F
DELTA          NOT AVBL
NUCLA          NOT AVBL
$$

COZ017>023-064>068-281100-
...SOUTHWEST COLORADO...

CITY           SKY/WX    TMP DP  RH WIND       PRES   REMARKS
DURANGO        CLOUDY    43  32  65 E3        29.77F
CORTEZ         LGT RAIN  48  35  60 SW8G23    29.74S
PAGOSA SPRINGS CLOUDY    42  30  62 NE6       29.82F
TELLURIDE      LGT SNOW  38  31  76 S6        29.80S
WOLF CREEK PAS NOT AVBL
$$

COZ009-010-012-014-032>034-037-058>063-281100-
...CENTRAL COLORADO...

CITY           SKY/WX    TMP DP  RH WIND       PRES   REMARKS
ASPEN          MOCLDY    32  27  81 CALM      29.79S
BUENA VISTA    LGT SNOW  34  32  93 S7        29.86S WCI  28
COPPER MTN     NOT AVBL
BERTHOUD PASS  CLOUDY    18   9  68 SE13      29.91S WCI   4
COTTONWOOD PAS SNOW      32  32 100 SE9       29.88F VSB 1/4 WCI  24
GUNNISON       MOCLDY    37  28  70 N10       29.83S
KREMMLING      FAIR      28  25  86 CALM      29.85S
LEADVILLE      SNOW      29  29 100 S13       29.85S VSB 1/2 WCI  19
MONARCH PASS   FOG       25  23  93 E10G16    30.02S VSB<1/4 WCI  15
SALIDA         CLOUDY    38  36  92 SE12      29.93F
SUNLIGHT       LGT SNOW  30  28  93 CALM      29.89S VSB 1
WILKERSON PASS FOG       25  23  93 S10G17    29.94S VSB 3/4 WCI  15
$$

COZ069>075-281100-
...SAN LUIS VALLEY/SANGRE DE CRISTO MOUNTAINS...

CITY           SKY/WX    TMP DP  RH WIND       PRES   REMARKS
ALAMOSA        CLOUDY    42  32  67 SE10      29.82F
LA VETA PASS   LGT SNOW  27  25  93 MISG      29.93S VSB 3/4
SAGUACHE       CLOUDY    37  32  81 CALM      29.85S
$$

COZ035-036-038>040-281100-
...NORTHERN COLORADO FRONT RANGE...

CITY           SKY/WX    TMP DP  RH WIND       PRES   REMARKS
DENVER INTL AP CLOUDY    35  25  66 E8        29.92S WCI  29
DMNS CITY PARK   N/A     38  27  66 E13       29.93S
AURORA         CLOUDY    35  28  76 E5        29.94R WCI  31
FRONT RANGE AP NOT AVBL
ERIE MUNI ARPT CLOUDY    38  28  68 E7        29.94S
BOULDER MUN AP CLOUDY    37  28  70 E6        29.93S
CENTENNIAL     CLOUDY    35  27  72 E5        29.92S WCI  31
BROOMFIELD     CLOUDY    36  28  75 E7        29.93S
FORT COLLINS   CLOUDY    37  27  65 SE6       29.94S
LONGMONT       CLOUDY    39  29  66 E10       29.95S HAZE
$$

COZ041-046-047-076>085-087-088-281100-
...PIKES PEAK/PALMER DIVIDE AND SOUTHERN FOOTHILLS...

CITY           SKY/WX    TMP DP  RH WIND       PRES   REMARKS
COLO. SPRINGS  CLOUDY    37  28  70 CALM      29.93R
A. F. ACADEMY  FLURRIES  36  30  80 NW6       29.91R
SCHRIEVER AFB  NOT AVBL
ELLICOTT       NOT AVBL
FALCON         CLOUDY    32  26  78 NE6       29.93R WCI  26
FORT CARSON    CLOUDY    37  30  74 E2        29.92R
LIMON          CLOUDY    34  27  75 N8        29.93R WCI  27
MONUMENT HILL  CLOUDY    30  28  93 E6        29.93S WCI  24
TRINIDAD       CLOUDY    44  30  57 W9        29.88R
$$

COZ042>045-048>051-090-091-281100-
...NORTHEAST COLORADO...

CITY           SKY/WX    TMP DP  RH WIND       PRES   REMARKS
GREELEY ARPT   CLOUDY    36  28  75 E3        29.96R
AKRON          MOCLDY    29  26  89 NW7       29.91F WCI  22
BURLINGTON     FAIR      35  29  78 NW6       29.93R WCI  30
WRAY           NOT AVBL
STERLING       FAIR      32  30  93 N6        29.93S WCI  26
HOLYOKE        NOT AVBL
FORT MORGAN    CLOUDY    33  28  84 N3        29.94S
$$

COZ086-089-092>099-281100-
...SOUTHEAST COLORADO...

CITY           SKY/WX    TMP DP  RH WIND       PRES   REMARKS
PUEBLO         CLOUDY    45  28  51 E12       29.92R
LA JUNTA       CLOUDY    44  29  55 E12       29.92S
LAMAR          MOCLDY    41  31  67 E5        29.92R
SPRINGFIELD      N/A     36  31  82 N8        29.92R
$$




USA.gov is the U.S. government's official web portal to all federal, state and local government web resources and services.